[[{"header":{"parameterUnit":"m.s-1","parameterCategory":1,"la1":30.2991,"la2":30.254,"lo1":-89.0895,"lo2":-89.0444,"dy":0.0017,"dx":0.0017,"nx":28,"ny":28,"refTime":"2024-04-16T21:00:00:Z","depth":0,"parameterNumber":2,"parameterNumberName":"U-component_of_WINDS"},"data":[0,0,0,0,0,0,0,0,0,0,0,0,0,0,0,0,0,0,0,0,0,0,0,0,0,0,0,0,0,0,0,0,0,0,0,0,0,0,0,0,0,0,0,0,0,0,0,0,0,0,0,0,0,0,0,0,0,0,-1.8488,-1.8488,0,-1.8515,-1.8515,-1.8516,-1.8512,-1.8511,-1.8511,-1.851,-1.8537,-1.8538,-1.8539,0,0,0,0,0,0,0,0,0,0,0,0,0,-1.843,-1.8431,-1.8488,-1.8488,-1.8488,-1.8515,-1.8515,-1.8516,-1.8512,-1.8511,-1.8511,-1.851,-1.8537,-1.8538,-1.8539,0,0,0,0,0,0,0,0,0,0,0,0,0,-1.8456,-1.8432,-1.8488,-1.849,-1.849,-1.8515,-1.8515,-1.8516,-1.8512,-1.8511,-1.851,-1.851,-1.8536,-1.8538,-1.8539,-1.8564,0,0,-1.8545,-1.8545,0,0,0,0,0,0,0,0,-1.8455,-1.8458,-1.8489,-1.849,-1.849,-1.8509,-1.8505,-1.8532,-1.8512,-1.8504,-1.851,-1.8509,-1.8528,-1.853,-1.8537,-1.8565,-1.8566,-1.8545,-1.8546,-1.8547,-1.8547,0,0,0,0,0,0,0,-1.8453,-1.8457,-1.8498,-1.849,-1.849,-1.8489,-1.8491,-1.851,-1.8519,-1.8504,-1.8504,-1.8507,-1.8528,-1.8535,-1.8538,-1.8566,-1.8545,-1.8546,-1.8547,-1.8548,-1.8613,-1.8614,0,0,0,0,0,0,-1.8451,-1.8456,-1.8498,-1.8499,-1.847,-1.849,-1.8493,-1.8504,-1.8519,-1.8521,-1.8508,-1.8507,-1.8533,-1.8536,-1.8539,-1.8566,-1.8547,-1.8548,-1.8549,-1.8613,-1.8614,-1.8614,0,0,0,0,0,0,-1.845,-1.8455,-1.8497,-1.8477,-1.8483,-1.8492,-1.8504,-1.8505,-1.8512,-1.8522,-1.8523,-1.8513,-1.8532,-1.8536,-1.8557,-1.8567,-1.8549,-1.855,-1.8612,-1.8613,-1.8614,-1.8623,0,0,0,0,0,0,-1.8448,-1.8454,-1.8464,-1.8478,-1.8484,-1.8515,-1.8504,-1.8506,-1.8515,-1.8514,-1.8528,-1.8529,-1.8532,-1.8555,-1.8559,-1.8569,-1.8552,-1.8611,-1.8612,-1.8614,-1.8622,-1.8624,-1.8626,0,0,0,0,0,-1.8446,-1.8466,-1.8465,-1.847,-1.8496,-1.8516,-1.8519,-1.8522,-1.8516,-1.8525,-1.8531,-1.8529,-1.8566,-1.8557,-1.8561,-1.8573,-1.861,-1.8612,-1.8614,-1.8621,-1.8624,-1.8626,0,0,0,0,0,0,-1.8453,-1.8467,-1.8466,-1.8491,-1.8502,-1.8515,-1.8527,-1.8526,-1.8539,-1.8537,-1.8541,-1.8544,-1.8565,-1.8571,-1.8561,-1.8596,-1.8587,-1.859,-1.8591,-1.8594,-1.8596,-1.8594,-1.8553,0,0,0,0,0,-1.8457,-1.8472,-1.8484,-1.8505,-1.851,-1.8518,-1.8526,-1.8528,-1.854,-1.8544,-1.8552,-1.8563,-1.8577,-1.8586,-1.8599,-1.8623,-1.8625,-1.8633,-1.8635,-1.8637,-1.8639,-1.8651,-1.8654,-1.862,-1.862,-1.862,0,0,-1.8466,-1.8476,-1.8485,-1.8506,-1.8515,-1.853,-1.8522,-1.8538,-1.8549,-1.8547,-1.8566,-1.8573,-1.8585,-1.8607,-1.8617,-1.8613,-1.8649,-1.8639,-1.8641,-1.8642,-1.8653,-1.8656,-1.8659,-1.8621,-1.8621,-1.862,0,0,-1.849,-1.85,-1.8517,-1.8526,-1.8539,-1.8544,-1.8548,-1.8561,-1.8565,-1.8585,-1.8583,-1.8596,-1.8621,-1.8629,-1.8636,-1.8662,-1.866,-1.8667,-1.8678,-1.8689,-1.8692,-1.8694,-1.8702,-1.8705,-1.8669,-1.8669,-1.8669,0,-1.8499,-1.8522,-1.8526,-1.8542,-1.8551,-1.855,-1.8567,-1.8575,-1.8592,-1.8598,-1.8593,-1.8623,-1.8631,-1.8654,-1.866,-1.8667,-1.8671,-1.8665,-1.8692,-1.8694,-1.8696,-1.8704,-1.8707,-1.867,-1.8669,-1.8669,-1.8669,0,-1.8532,-1.8548,-1.856,-1.8576,-1.8586,-1.8603,-1.8609,-1.8619,-1.8619,-1.8624,-1.8644,-1.8654,-1.8669,-1.8675,-1.8676,-1.8698,-1.8695,-1.8691,-1.8682,-1.87,-1.8707,-1.871,-1.867,-1.867,-1.867,-1.867,0,0,-1.856,-1.8578,-1.8583,-1.8589,-1.8604,-1.8616,-1.8632,-1.8646,-1.8654,-1.8666,-1.8678,-1.8699,-1.8695,-1.8703,-1.8705,-1.8716,-1.8734,-1.871,-1.871,-1.8713,-1.8757,-1.8759,-1.8762,-1.8733,-1.8733,-1.8734,-1.8756,0,-1.8584,-1.8613,-1.8616,-1.8641,-1.8655,-1.8654,-1.8668,-1.8678,-1.8683,-1.8695,-1.87,-1.8714,-1.8709,-1.8714,-1.8724,-1.8729,-1.8742,-1.8728,-1.8743,-1.8744,-1.8739,-1.8766,-1.8768,-1.8788,-1.8758,-1.8759,-1.8759,0,-1.8616,-1.8628,-1.8654,-1.8666,-1.8672,-1.8684,-1.8697,-1.8709,-1.872,-1.8723,-1.8732,-1.8732,-1.8748,-1.8739,-1.876,-1.875,-1.8757,-1.8761,-1.8762,-1.8762,-1.8752,-1.8766,-1.8795,-1.8797,-1.8764,-1.8764,-1.8763,0,-1.8631,-1.8655,-1.8673,-1.8679,-1.8694,-1.8702,-1.8708,-1.8719,-1.8727,-1.8738,-1.8743,-1.8757,-1.8764,-1.8774,-1.8777,-1.8771,-1.8798,-1.879,-1.88,-1.88,-1.8804,-1.8804,-1.8833,-1.8811,-1.8811,-1.8811,-1.8811,0,-1.8657,-1.8673,-1.868,-1.8691,-1.8709,-1.8713,-1.873,-1.8735,-1.8744,-1.8756,-1.8757,-1.8767,-1.8772,-1.8784,-1.8787,-1.8803,-1.8807,-1.8809,-1.8809,-1.8808,-1.8808,-1.8812,-1.881,-1.8812,-1.8812,-1.8812,-1.8811,0,-1.8677,-1.8683,-1.8703,-1.8715,-1.8718,-1.873,-1.874,-1.875,-1.8755,-1.877,-1.8773,-1.8781,-1.8794,-1.8799,-1.8816,-1.8818,-1.8836,-1.8836,-1.8833,-1.8832,-1.8842,-1.884,-1.8874,-1.8878,-1.8854,-1.8854,-1.8854,0,-1.8692,-1.8704,-1.8717,-1.8725,-1.8731,-1.8744,-1.8753,-1.8757,-1.8765,-1.8778,-1.8787,-1.88,-1.8811,-1.8833,-1.8839,-1.8852,-1.8851,-1.8862,-1.8853,-1.8851,-1.885,-1.8848,-1.8849,-1.8863,-1.8864,-1.8864,-1.8864,0,-1.8718,-1.872,-1.8732,-1.8745,-1.8755,-1.8765,-1.8775,-1.8781,-1.8787,-1.8797,-1.881,-1.8819,-1.8835,-1.8848,-1.8861,-1.8867,-1.8866,-1.8867,-1.887,-1.8868,-1.8865,-1.8865,-1.8836,-1.8866,-1.8866,-1.8866,-1.8866,-1.8865,-1.8735,-1.8745,-1.8755,-1.8768,-1.8776,-1.8786,-1.8795,-1.8802,-1.8813,-1.8827,-1.8829,-1.8843,-1.8853,-1.887,-1.8877,-1.8888,-1.8885,-1.8889,-1.889,-1.889,-1.889,-1.8864,-1.889,-1.889,-1.889,-1.889,-1.889,0,-1.8759,-1.8766,-1.8778,-1.8792,-1.8802,-1.8801,-1.8811,-1.882,-1.8832,-1.8842,-1.8852,-1.8867,-1.888,-1.8888,-1.89,-1.8907,-1.8907,-1.891,-1.8909,-1.891,-1.8893,-1.8889,-1.891,-1.891,-1.891,-1.891,-1.891,-1.891,-1.8773,-1.8789,-1.8793,-1.8813,-1.8819,-1.8833,-1.8839,-1.8848,-1.8855,-1.8872,-1.8882,-1.8887,-1.8896,-1.8909,-1.892,-1.8922,-1.8926,-1.8929,-1.893,-1.8914,-1.8912,-1.891,-1.8905,-1.893,-1.893,-1.8946,-1.8946,-1.8947]},{"header":{"parameterUnit":"m.s-1","parameterCategory":1,"la1":30.2991,"la2":30.254,"lo1":-89.0895,"lo2":-89.0444,"dy":0.0017,"dx":0.0017,"nx":28,"ny":28,"refTime":"2024-04-16T21:00:00:Z","depth":0,"parameterNumber":3,"parameterNumberName":"V-component_of_WINDS"},"data":[0,0,0,0,0,0,0,0,0,0,0,0,0,0,0,0,0,0,0,0,0,0,0,0,0,0,0,0,0,0,0,0,0,0,0,0,0,0,0,0,0,0,0,0,0,0,0,0,0,0,0,0,0,0,0,0,0,0,1.5718,1.5719,0,1.5775,1.5775,1.5776,1.5769,1.5769,1.5768,1.5767,1.5822,1.5824,1.5826,0,0,0,0,0,0,0,0,0,0,0,0,0,1.5603,1.5605,1.5718,1.5719,1.572,1.5774,1.5775,1.5776,1.577,1.5769,1.5767,1.5766,1.5821,1.5824,1.5827,0,0,0,0,0,0,0,0,0,0,0,0,0,1.5655,1.5606,1.5718,1.5723,1.5724,1.5774,1.5775,1.5776,1.577,1.5768,1.5767,1.5766,1.582,1.5823,1.5827,1.5875,0,0,1.5837,1.5839,0,0,0,0,0,0,0,0,1.5652,1.566,1.5722,1.5723,1.5724,1.5764,1.5755,1.5809,1.577,1.5752,1.5767,1.5765,1.5803,1.5808,1.5821,1.5877,1.588,1.5838,1.584,1.5841,1.5842,0,0,0,0,0,0,0,1.5649,1.5657,1.5741,1.5723,1.5724,1.5722,1.5728,1.5765,1.5785,1.5754,1.5754,1.576,1.5804,1.5818,1.5823,1.5881,1.5838,1.5841,1.5843,1.5844,1.5978,1.5979,0,0,0,0,0,0,1.5644,1.5654,1.5739,1.5742,1.5684,1.5725,1.5732,1.5752,1.5784,1.5788,1.5762,1.576,1.5813,1.5819,1.5825,1.5883,1.5841,1.5844,1.5846,1.5976,1.5978,1.598,0,0,0,0,0,0,1.5642,1.5652,1.5736,1.5698,1.5709,1.5728,1.5752,1.5754,1.5769,1.579,1.5793,1.5773,1.5812,1.582,1.5862,1.5884,1.5846,1.5849,1.5975,1.5977,1.5979,1.5999,0,0,0,0,0,0,1.5639,1.5651,1.567,1.5699,1.5711,1.5774,1.5753,1.5756,1.5775,1.5773,1.5802,1.5805,1.5812,1.5857,1.5866,1.5888,1.5852,1.5973,1.5976,1.5978,1.5996,1.6002,1.6006,0,0,0,0,0,1.5634,1.5673,1.5671,1.5681,1.5735,1.5776,1.5782,1.579,1.5777,1.5796,1.5809,1.5804,1.5881,1.5862,1.5871,1.5895,1.5971,1.5975,1.5978,1.5994,1.6001,1.6006,0,0,0,0,0,0,1.5646,1.5677,1.5675,1.5724,1.5747,1.5774,1.5798,1.5797,1.5823,1.5821,1.5829,1.5835,1.5878,1.5891,1.5869,1.5943,1.5924,1.593,1.5933,1.5939,1.5944,1.594,1.5855,0,0,0,0,0,1.5654,1.5685,1.571,1.5751,1.5763,1.5779,1.5797,1.5801,1.5825,1.5834,1.5851,1.5874,1.5903,1.5922,1.595,1.5998,1.6004,1.6019,1.6024,1.6028,1.6032,1.6058,1.6065,1.5991,1.5991,1.5991,0,0,1.5671,1.5692,1.5711,1.5754,1.5772,1.5803,1.5787,1.5821,1.5843,1.5839,1.588,1.5893,1.5919,1.5965,1.5986,1.5977,1.6054,1.6032,1.6035,1.6038,1.6063,1.607,1.6076,1.5993,1.5993,1.5992,0,0,1.5719,1.5738,1.5774,1.5793,1.5821,1.5832,1.584,1.5868,1.5876,1.5918,1.5915,1.5942,1.5992,1.6011,1.6027,1.6081,1.6077,1.609,1.6114,1.614,1.6146,1.6151,1.617,1.6176,1.6094,1.6094,1.6094,0,1.5736,1.5784,1.5792,1.5827,1.5845,1.5843,1.5879,1.5897,1.5933,1.5945,1.5935,1.5998,1.6015,1.6065,1.6078,1.6091,1.61,1.6086,1.6144,1.615,1.6155,1.6173,1.618,1.6095,1.6095,1.6095,1.6095,0,1.5804,1.5837,1.5863,1.5898,1.5919,1.5954,1.5967,1.5988,1.599,1.6001,1.6043,1.6064,1.6096,1.6108,1.611,1.6158,1.6151,1.6143,1.6124,1.6163,1.618,1.6187,1.6097,1.6097,1.6096,1.6096,0,0,1.586,1.59,1.5909,1.5925,1.5956,1.5981,1.6016,1.6048,1.6065,1.6089,1.6118,1.616,1.6153,1.6171,1.6175,1.6197,1.6238,1.6185,1.6186,1.6194,1.6291,1.6297,1.6305,1.6235,1.6237,1.6238,1.6289,0,1.591,1.5972,1.5981,1.6035,1.6065,1.6064,1.6094,1.6115,1.6126,1.6153,1.6165,1.6195,1.6182,1.6193,1.6215,1.6228,1.6257,1.6225,1.6261,1.6262,1.6255,1.6314,1.6321,1.6368,1.6296,1.6297,1.6298,0,1.5977,1.6005,1.6062,1.6089,1.6102,1.6129,1.6159,1.6184,1.6208,1.6215,1.6235,1.6236,1.6271,1.6251,1.6298,1.6276,1.6291,1.6299,1.6301,1.6305,1.6282,1.6319,1.6384,1.6391,1.6308,1.6307,1.6307,0,1.6012,1.6063,1.6104,1.6118,1.615,1.6169,1.6183,1.6206,1.6224,1.625,1.6262,1.6291,1.6307,1.6329,1.6338,1.6323,1.6385,1.6365,1.639,1.639,1.6403,1.6402,1.6471,1.6414,1.6413,1.6413,1.6413,0,1.6067,1.6102,1.612,1.6145,1.6184,1.6193,1.6232,1.6245,1.6265,1.6292,1.6292,1.6317,1.6327,1.6354,1.6361,1.6399,1.6406,1.6411,1.6413,1.6411,1.6411,1.6421,1.6418,1.6415,1.6415,1.6414,1.6414,0,1.6113,1.6126,1.6171,1.6198,1.6205,1.6233,1.6255,1.6279,1.629,1.6324,1.6333,1.6349,1.638,1.6391,1.6429,1.6433,1.6477,1.6476,1.6469,1.647,1.6494,1.6491,1.6571,1.6582,1.6518,1.6519,1.6519,0,1.6147,1.6174,1.6204,1.6223,1.6238,1.6268,1.6287,1.6296,1.6316,1.6345,1.6366,1.6397,1.6422,1.6472,1.6487,1.6515,1.6514,1.654,1.6519,1.6516,1.6514,1.6513,1.6515,1.6544,1.6545,1.6546,1.6546,0,1.6206,1.6212,1.624,1.627,1.6293,1.6317,1.6341,1.6356,1.6368,1.639,1.6423,1.6443,1.6481,1.6512,1.6541,1.6554,1.6552,1.6553,1.656,1.6559,1.6554,1.6557,1.648,1.6551,1.655,1.655,1.655,1.655,1.6247,1.6271,1.6296,1.6327,1.6346,1.6368,1.6391,1.6405,1.6433,1.6466,1.6469,1.6504,1.6526,1.6566,1.658,1.6607,1.6599,1.661,1.6613,1.6615,1.6617,1.655,1.6612,1.6612,1.6612,1.6612,1.6612,0,1.6306,1.6322,1.6351,1.6384,1.6408,1.6405,1.643,1.6451,1.6481,1.6503,1.6528,1.6565,1.6595,1.6612,1.6641,1.6659,1.6659,1.6666,1.6665,1.6668,1.6622,1.6612,1.6666,1.6666,1.6666,1.6666,1.6666,1.6666,1.634,1.638,1.6388,1.6437,1.6453,1.6487,1.6502,1.6522,1.6539,1.6581,1.6606,1.6617,1.6637,1.6668,1.6694,1.6698,1.6709,1.6717,1.6721,1.6677,1.6671,1.6666,1.6657,1.672,1.672,1.6765,1.6765,1.6766]}]]